Hourly Weather Murillo

Today, 28 September, Tuesday

Time Temperature Precipitation Wind Pressure Humidity
00:00 +8°C° 0 mm 1 mps 532 mmHg 83%
01:00 +8°C° 0 mm 1 mps 532 mmHg 83%
02:00 +8°C° 0 mm 1 mps 531 mmHg 83%
03:00 +8°C° 0 mm 1 mps 531 mmHg 83%
04:00 +8°C° 0 mm 1 mps 531 mmHg 84%
05:00 +8°C° 0 mm 1 mps 532 mmHg 82%
06:00 +9°C° 0 mm 1 mps 532 mmHg 80%
07:00 +9°C° 0 mm 0 mps 533 mmHg 79%
08:00 +12°C° 0.1 mm 1 mps 534 mmHg 75%
09:00 +13°C° 0.1 mm 2 mps 535 mmHg 71%
10:00 +15°C° 0.1 mm 2 mps 536 mmHg 67%
11:00 +15°C° 0.6 mm 2 mps 535 mmHg 68%
12:00 +15°C° 0.6 mm 2 mps 535 mmHg 69%
13:00 +15°C° 0.6 mm 2 mps 534 mmHg 70%
14:00 +15°C° 1 mm 1 mps 534 mmHg 73%
15:00 +14°C° 1 mm 1 mps 533 mmHg 76%
16:00 +14°C° 1 mm 1 mps 532 mmHg 79%
17:00 +12°C° 0.4 mm 1 mps 532 mmHg 83%
18:00 +11°C° 0.4 mm 1 mps 532 mmHg 86%
19:00 +9°C° 0.4 mm 1 mps 531 mmHg 90%
20:00 +9°C° 0.1 mm 1 mps 531 mmHg 90%
21:00 +7°C° 0.1 mm 2 mps 531 mmHg 91%
22:00 +7°C° 0.1 mm 2 mps 531 mmHg 91%
23:00 +7°C° 0.5 mm 2 mps 531 mmHg 92%

Tomorrow, 29 September, Wednesday

Time Temperature Precipitation Wind Pressure Humidity
00:00 +8°C° 0.5 mm 1 mps 531 mmHg 93%
01:00 +7°C° 0.5 mm 1 mps 531 mmHg 94%
02:00 +7°C° 0.4 mm 1 mps 531 mmHg 94%
03:00 +7°C° 0.4 mm 1 mps 531 mmHg 94%
04:00 +7°C° 0.4 mm 1 mps 530 mmHg 94%
05:00 +8°C° 0.2 mm 1 mps 531 mmHg 93%
06:00 +7°C° 0.2 mm 0 mps 532 mmHg 92%
07:00 +8°C° 0.2 mm 0 mps 532 mmHg 91%
08:00 +9°C° 0.3 mm 0 mps 533 mmHg 89%
09:00 +11°C° 0.3 mm 1 mps 534 mmHg 87%
10:00 +12°C° 0.3 mm 1 mps 534 mmHg 85%
11:00 +12°C° 0.6 mm 1 mps 534 mmHg 84%
12:00 +13°C° 0.6 mm 1 mps 533 mmHg 84%
13:00 +14°C° 0.6 mm 1 mps 533 mmHg 83%
14:00 +13°C° 1.3 mm 1 mps 533 mmHg 85%
15:00 +13°C° 1.3 mm 1 mps 532 mmHg 87%
16:00 +12°C° 1.3 mm 1 mps 532 mmHg 89%
17:00 +11°C° 0.5 mm 1 mps 532 mmHg 90%
18:00 +10°C° 0.5 mm 1 mps 531 mmHg 92%
19:00 +9°C° 0.5 mm 1 mps 531 mmHg 94%
20:00 +9°C° 0.5 mm 1 mps 531 mmHg 95%
21:00 +8°C° 0.5 mm 1 mps 532 mmHg 95%
22:00 +8°C° 0.5 mm 1 mps 532 mmHg 95%
23:00 +8°C° 0.8 mm 1 mps 531 mmHg 95%

Day after tomorrow, 30 September, Thursday

Time Temperature Precipitation Wind Pressure Humidity
00:00 +8°C° 0.8 mm 1 mps 531 mmHg 95%
01:00 +8°C° 0.8 mm 1 mps 531 mmHg 95%
02:00 +8°C° 1.4 mm 1 mps 531 mmHg 96%
03:00 +8°C° 1.4 mm 1 mps 531 mmHg 97%
04:00 +7°C° 1.4 mm 0 mps 530 mmHg 97%
05:00 +8°C° 2.7 mm 1 mps 531 mmHg 97%
06:00 +8°C° 2.7 mm 1 mps 531 mmHg 96%
07:00 +8°C° 2.7 mm 1 mps 532 mmHg 95%
08:00 +9°C° 0.6 mm 1 mps 532 mmHg 93%
09:00 +9°C° 0.6 mm 0 mps 533 mmHg 91%
10:00 +10°C° 0.6 mm 0 mps 533 mmHg 89%
11:00 +12°C° 0.2 mm 1 mps 533 mmHg 85%
12:00 +13°C° 0.2 mm 1 mps 533 mmHg 80%
13:00 +14°C° 0.2 mm 2 mps 533 mmHg 76%
14:00 +13°C° 0.6 mm 1 mps 532 mmHg 81%
15:00 +13°C° 0.6 mm 1 mps 532 mmHg 86%
16:00 +12°C° 0.6 mm 1 mps 531 mmHg 91%
17:00 +11°C° 0.9 mm 1 mps 531 mmHg 93%
18:00 +10°C° 0.9 mm 1 mps 531 mmHg 95%
19:00 +9°C° 0.9 mm 1 mps 531 mmHg 96%
20:00 +9°C° 0.6 mm 1 mps 531 mmHg 96%
21:00 +9°C° 0.6 mm 1 mps 532 mmHg 96%
22:00 +9°C° 0.6 mm 1 mps 532 mmHg 96%
23:00 +9°C° 0.4 mm 1 mps 531 mmHg 96%

1 October, Friday

Time Temperature Precipitation Wind Pressure Humidity
00:00 +9°C° 0.4 mm 1 mps 531 mmHg 96%
01:00 +8°C° 0.4 mm 1 mps 531 mmHg 97%
02:00 +8°C° 0.2 mm 1 mps 531 mmHg 96%
03:00 +8°C° 0.2 mm 1 mps 531 mmHg 96%
04:00 +7°C° 0.2 mm 0 mps 530 mmHg 96%
05:00 +7°C° 0.2 mm 0 mps 531 mmHg 96%
06:00 +8°C° 0.2 mm 0 mps 531 mmHg 95%
07:00 +8°C° 0.2 mm 0 mps 532 mmHg 94%
08:00 +10°C° 0.3 mm 1 mps 533 mmHg 91%
09:00 +11°C° 0.3 mm 1 mps 533 mmHg 88%
10:00 +12°C° 0.3 mm 2 mps 534 mmHg 85%
11:00 +12°C° 0.7 mm 1 mps 534 mmHg 86%
12:00 +13°C° 0.7 mm 1 mps 533 mmHg 87%
13:00 +13°C° 0.7 mm 1 mps 532 mmHg 87%
14:00 +12°C° 0.6 mm 1 mps 532 mmHg 89%
15:00 +12°C° 0.6 mm 1 mps 531 mmHg 91%
16:00 +12°C° 0.6 mm 1 mps 531 mmHg 93%
17:00 +11°C° 0.3 mm 1 mps 531 mmHg 94%
18:00 +10°C° 0.3 mm 1 mps 531 mmHg 95%
19:00 +9°C° 0.3 mm 1 mps 531 mmHg 96%
20:00 +9°C° 0.1 mm 1 mps 531 mmHg 96%
21:00 +8°C° 0.1 mm 1 mps 531 mmHg 95%
22:00 +8°C° 0.1 mm 1 mps 531 mmHg 95%
23:00 +8°C° 0.2 mm 1 mps 531 mmHg 95%

2 October, Saturday

Time Temperature Precipitation Wind Pressure Humidity
00:00 +7°C° 0.2 mm 1 mps 531 mmHg 95%
01:00 +7°C° 0.2 mm 1 mps 530 mmHg 95%
02:00 +7°C° 0.2 mm 1 mps 530 mmHg 95%
03:00 +7°C° 0.2 mm 1 mps 530 mmHg 94%
04:00 +7°C° 0.2 mm 1 mps 530 mmHg 94%
05:00 +8°C° 0.2 mm 1 mps 531 mmHg 93%
06:00 +7°C° 0.2 mm 0 mps 532 mmHg 91%
07:00 +8°C° 0.2 mm 0 mps 532 mmHg 89%
08:00 +11°C° 0.2 mm 1 mps 533 mmHg 86%
09:00 +12°C° 0.2 mm 1 mps 534 mmHg 83%
10:00 +13°C° 0.2 mm 2 mps 535 mmHg 80%
11:00 +13°C° 0.5 mm 1 mps 534 mmHg 79%
12:00 +14°C° 0.5 mm 1 mps 534 mmHg 78%
13:00 +14°C° 0.5 mm 1 mps 533 mmHg 77%
14:00 +14°C° 0.4 mm 1 mps 533 mmHg 78%
15:00 +13°C° 0.4 mm 1 mps 532 mmHg 80%
16:00 +13°C° 0.4 mm 1 mps 532 mmHg 81%
17:00 +12°C° 0.3 mm 1 mps 531 mmHg 85%
18:00 +11°C° 0.3 mm 1 mps 531 mmHg 89%
19:00 +9°C° 0.3 mm 1 mps 531 mmHg 92%
20:00 +9°C° 0.2 mm 1 mps 531 mmHg 92%
21:00 +9°C° 0.2 mm 1 mps 531 mmHg 92%
22:00 +8°C° 0.2 mm 1 mps 531 mmHg 92%
23:00 +7°C° 0.2 mm 2 mps 531 mmHg 92%

3 October, Sunday

Time Temperature Precipitation Wind Pressure Humidity
00:00 +7°C° 0.2 mm 2 mps 530 mmHg 93%
01:00 +6°C° 0.2 mm 2 mps 530 mmHg 93%
02:00 +6°C° 0.2 mm 2 mps 530 mmHg 93%
03:00 +7°C° 0.2 mm 1 mps 530 mmHg 93%
04:00 +7°C° 0.2 mm 1 mps 530 mmHg 92%
05:00 +8°C° 0.1 mm 1 mps 530 mmHg 90%
06:00 +8°C° 0.1 mm 0 mps 531 mmHg 87%
07:00 +9°C° 0.1 mm 0 mps 532 mmHg 84%
08:00 +11°C° 0.1 mm 1 mps 533 mmHg 80%
09:00 +13°C° 0.1 mm 1 mps 534 mmHg 75%
10:00 +14°C° 0.1 mm 2 mps 535 mmHg 71%
11:00 +14°C° 0.5 mm 2 mps 534 mmHg 74%
12:00 +14°C° 0.5 mm 1 mps 534 mmHg 77%
13:00 +14°C° 0.5 mm 1 mps 533 mmHg 80%
14:00 +14°C° 0.7 mm 1 mps 532 mmHg 82%
15:00 +13°C° 0.7 mm 1 mps 532 mmHg 83%
16:00 +13°C° 0.7 mm 1 mps 532 mmHg 85%
17:00 +12°C° 0.3 mm 1 mps 531 mmHg 87%
18:00 +11°C° 0.3 mm 1 mps 531 mmHg 90%
19:00 +10°C° 0.3 mm 1 mps 531 mmHg 93%
20:00 +9°C° 0.1 mm 1 mps 531 mmHg 93%
21:00 +9°C° 0.1 mm 1 mps 531 mmHg 94%
22:00 +7°C° 0.1 mm 2 mps 531 mmHg 94%
23:00 +7°C° 0.4 mm 2 mps 530 mmHg 94%
Show more

We Need Your Consent

Meteoprog and our Service Providers may store and access personal data such as cookies, device identifiers or other similar technologies on your device and process such data to personalise content and ads, as well as provide social media features and to analyse the traffic.

  • Store and/or access information on your device

    Cookies, device identifiers or other information can be stored or accessed on your device for the purposes indicated above.

  • Personalised ads and content, ad and content measurement, audience insights, and products development

    Ads and content can be personalised based on a profile. More data can be added to better personalise ads and content. Ad and content performance can be measured. Insights about the audience who saw the ads and content can be derived. Such data can be used to develop or improve user’s experience, systems and software.

By clicking ‘I Agree’ you will allow the use of indicated cookies, device identifiers, web beacons or other similar technologies. Your settings can be changed in the browser on your device.

For certain purposes, legitimate interests may be relied on, rather than consent. You can read more about this in our Privacy and Cookie Policy.